Location: Ladrillo (historical)
(32.8195°N, 117.2231°W)
Time: 03:18:47
(UTC+00:00)

Cosmos 1315 Rocket - Pass Details

Date: 29 October 2020
Orbit: 530 x 567 km, 81.2° (Epoch: 26 November)

Event Time Altitude Azimuth Distance (km) Brightness Sun altitude
Rises 13:19:21 0° 354° (N) 2,764 6.2 -10.1°
Reaches altitude 10° 13:21:32 10° 356° (N) 1,866 5.4 -9.7°
Maximum altitude 13:25:39 76° 81° (E) 588 3.1 -8.8°
Drops below altitude 10° 13:29:45 10° 168° (SSE) 1,856 5.8 -8.0°
Sets 13:31:56 0° 170° (S) 2,747 6.7 -7.5°
